Date,TemperatureHighF,TemperatureAvgF,TemperatureLowF,DewpointHighF,DewpointAvgF,DewpointLowF,HumidityHigh,HumidityAvg,HumidityLow,PressureMaxIn,PressureMinIn,WindSpeedMaxMPH,WindSpeedAvgMPH,GustSpeedMaxMPH,PrecipitationSumIn
2013-1-28,69,69,69,39,39,38,33,33,33,29.15,29.15,0,0,0,0.00
2013-1-29,74,71,68,42,40,38,33,32,31,29.06,28.94,0,0,0,0.00
2013-1-30,73,71,67,50,42,40,54,36,31,28.94,28.23,0,0,0,0.00
2013-1-31,66,46,30,51,24,11,69,42,37,28.82,28.23,0,0,0,0.00
2013-2-1,40,33,22,17,12,3,46,41,39,29.18,28.67,0,0,0,0.00
2013-2-2,33,22,16,12,3,-1,50,44,41,29.18,29.12,0,0,0,0.00
2013-2-3,36,35,34,15,14,13,42,41,40,28.73,28.70,0,0,0,0.00
2013-2-4,48,36,23,22,15,8,54,42,37,28.88,28.73,0,0,0,0.04
2013-2-5,58,45,34,30,21,16,51,39,35,28.76,28.61,8,0,8,0.00
2013-2-6,59,43,29,32,23,16,74,46,35,29.03,28.70,10,1,10,0.00
2013-2-7,48,41,34,36,24,18,78,53,38,29.06,28.73,9,2,9,0.51
2013-2-8,54,44,38,37,33,28,83,66,38,28.73,28.53,9,2,9,0.59
2013-2-9,50,40,27,25,17,8,46,39,37,29.06,28.94,12,2,12,0.00
2013-2-10,51,39,26,27,17,8,52,40,37,29.18,28.91,10,1,10,0.00
2013-2-11,62,53,43,57,44,26,93,73,50,28.91,28.61,13,2,13,4.41
2013-2-12,59,52,44,44,28,20,65,41,35,28.76,28.61,10,2,10,0.00
2013-2-13,47,45,41,44,36,24,91,73,40,28.64,28.32,9,1,9,0.31
2013-2-14,51,36,30,31,24,20,81,64,37,28.73,28.50,9,0,9,0.00
2013-2-15,60,42,28,32,25,19,80,52,35,28.73,28.59,8,1,8,0.00
2013-2-16,45,36,30,28,24,19,79,63,39,28.64,28.47,6,0,6,0.16
2013-2-17,36,28,20,24,10,3,77,47,40,28.91,28.56,15,1,15,0.00
2013-2-18,51,33,15,26,13,2,61,44,37,29.03,28.88,9,1,9,0.08
2013-2-19,52,44,34,46,31,14,83,60,40,28.88,28.47,14,3,14,0.08
2013-2-20,51,37,31,32,17,10,76,44,37,28.73,28.56,11,2,14,0.00
2013-2-21,53,38,23,27,16,6,51,40,36,28.82,28.67,10,1,10,0.00
2013-2-22,40,36,32,29,21,14,77,55,39,28.91,28.64,8,0,8,0.20
2013-2-23,43,41,35,40,38,29,90,87,77,28.64,28.29,4,0,5,0.51
2013-2-24,62,48,35,45,32,18,94,60,34,28.53,28.29,10,1,10,0.08
2013-2-25,39,34,31,18,14,11,50,43,39,28.67,28.53,8,2,9,0.00
2013-2-26,56,52,43,54,49,37,94,91,81,28.32,27.99,13,3,13,0.47
2013-2-27,61,48,38,46,32,24,94,57,35,28.20,28.05,13,3,13,0.00
2013-2-28,48,40,32,33,23,14,78,52,37,28.23,28.11,15,2,15,0.00
2013-3-1,49,38,26,24,19,14,71,46,37,28.26,28.20,9,1,9,0.00
2013-3-2,49,40,29,24,18,9,57,42,37,28.26,28.14,11,2,11,0.00
2013-3-3,48,35,27,23,14,8,51,41,37,28.29,28.14,13,2,13,0.00
2013-3-4,52,34,21,26,13,4,47,41,36,28.38,28.26,13,2,13,0.00
2013-3-5,52,41,29,38,26,10,77,56,37,28.32,27.67,10,1,10,0.55
2013-3-6,44,40,35,36,24,16,84,55,39,27.82,17.72,20,4,20,0.04
2013-3-7,51,40,29,26,19,13,67,43,37,17.72,17.72,11,2,11,0.00
2013-3-8,57,41,28,30,19,12,53,41,35,17.72,17.72,17,2,17,0.00
2013-3-9,65,44,29,35,21,12,53,40,33,17.72,17.72,8,1,8,0.00
2013-3-10,70,48,30,39,25,14,56,41,32,29.88,17.72,9,1,9,0.00
2013-3-11,70,55,40,39,32,18,71,41,32,29.83,29.56,13,2,13,0.00
2013-3-12,71,60,48,59,44,23,92,58,33,29.56,29.35,12,3,12,0.67
2013-3-13,57,45,31,29,22,14,65,40,35,29.71,29.53,14,3,14,0.00
2013-3-14,56,39,28,29,16,8,43,39,35,29.83,29.68,12,2,12,0.00
2013-3-15,63,56,46,34,29,22,39,36,34,29.59,29.50,16,4,16,0.00
2013-3-16,78,60,43,45,33,22,45,36,31,29.50,29.23,15,3,15,0.00
2013-3-17,60,49,39,44,30,23,72,49,37,29.77,29.41,13,3,13,0.00
2013-3-18,42,39,37,37,33,28,88,78,64,29.80,29.44,11,2,11,0.16
2013-3-19,68,49,39,42,36,23,94,67,33,29.62,29.41,14,3,14,0.00
2013-3-20,60,49,32,32,24,12,43,37,35,29.71,29.38,10,2,11,0.00
2013-3-21,45,39,33,21,17,12,48,40,38,29.50,29.32,14,3,14,0.00
2013-3-22,53,42,28,27,18,8,42,39,36,29.65,29.53,13,3,13,0.00
2013-3-23,58,44,30,30,22,10,49,40,35,29.65,29.50,8,1,8,0.00
2013-3-24,41,37,32,31,24,16,77,61,42,29.53,29.18,11,2,11,0.59
2013-3-25,49,40,34,31,24,16,86,57,37,29.38,29.15,19,3,19,0.00
2013-3-26,50,42,32,24,19,13,45,39,37,29.68,29.38,11,3,11,0.00
2013-3-27,53,41,28,27,18,11,55,41,36,29.80,29.68,15,3,15,0.00
2013-3-28,60,42,26,32,20,10,55,40,35,29.85,29.71,13,2,13,0.00
2013-3-29,64,43,27,35,21,11,58,42,33,29.91,29.74,12,2,12,0.00
2013-3-30,71,50,33,40,26,14,52,40,32,29.83,29.68,8,1,8,0.00
2013-3-31,68,56,48,51,38,28,91,53,34,29.68,29.41,15,2,15,0.47
2013-4-1,73,59,50,52,41,25,92,57,32,29.56,29.38,14,2,14,0.12
2013-4-2,62,48,32,34,24,16,57,39,34,29.74,29.56,17,2,17,0.00
2013-4-3,63,47,34,34,22,13,43,38,34,29.88,29.71,12,2,12,0.00
2013-4-4,50,42,37,33,24,15,80,50,37,29.94,29.53,11,3,11,0.51
2013-4-5,68,48,39,39,34,28,87,63,33,29.59,29.44,8,1,8,0.04
2013-4-6,68,57,38,38,31,20,71,38,33,29.85,29.59,10,3,11,0.00
2013-4-7,74,50,33,42,27,17,66,42,31,29.85,29.71,13,2,13,0.00
2013-4-8,81,65,50,49,39,30,79,40,30,29.77,29.62,13,3,13,0.00
2013-4-9,88,71,57,51,44,37,73,39,29,29.77,29.62,11,2,11,0.00
2013-4-10,91,74,63,53,45,39,51,36,28,29.68,29.50,13,3,13,0.00
2013-4-11,83,71,63,49,44,40,60,39,30,29.59,29.38,13,4,13,0.00
2013-4-12,83,71,63,64,50,35,91,51,30,29.41,29.21,15,4,15,0.98
2013-4-13,77,62,51,44,34,26,47,35,31,29.59,29.35,10,2,10,0.00
2013-4-14,82,63,43,48,38,30,75,43,29,29.71,29.59,8,1,8,0.98
2013-4-15,72,63,57,47,42,37,68,47,33,29.80,29.62,12,2,12,0.98
2013-4-16,81,64,57,55,47,40,85,58,30,29.88,29.80,9,1,9,0.98
2013-4-17,83,69,56,58,48,44,89,51,30,29.83,29.71,9,1,10,0.98
2013-4-18,80,69,59,53,45,40,73,43,30,29.80,29.62,10,2,10,0.00
2013-4-19,81,72,65,62,52,46,86,52,31,29.65,29.29,16,3,16,0.98
2013-4-20,67,61,53,37,32,27,37,35,33,29.74,29.68,10,2,10,0.00
2013-4-21,63,55,45,34,29,22,41,37,34,30.06,30.00,11,2,11,0.00
2013-4-22,60,42,37,32,24,0,59,49,35,30.06,29.85,11,1,11,0.00
2013-4-27,64,61,59,38,35,33,44,39,35,29.85,29.83,3,0,3,0.00
2013-4-28,61,58,54,48,37,30,80,48,35,29.85,29.71,4,0,5,0.39
2013-4-29,69,59,54,62,54,46,94,85,46,29.71,29.59,4,0,4,1.10
2013-5-4,59,56,54,37,36,34,48,46,42,29.74,29.71,8,2,8,1.10
2013-5-5,59,54,48,49,39,33,73,57,46,29.71,29.59,10,2,10,0.00
2013-5-6,70,60,55,64,53,46,90,77,49,29.62,29.44,10,2,10,1.10
2013-5-7,74,62,55,57,47,35,93,63,32,29.53,29.44,9,1,9,0.04
2013-5-12,75,63,53,44,37,27,49,39,31,29.62,29.47,9,2,9,0.00
2013-5-13,66,53,42,37,31,26,62,43,33,29.74,29.62,11,1,11,0.00
2013-5-14,70,61,41,39,35,29,71,39,32,29.85,29.74,10,2,10,0.00
2013-5-19,76,69,67,63,59,55,87,72,49,29.71,29.65,6,0,6,0.08
2013-5-20,78,70,67,68,63,53,96,79,46,29.71,29.62,8,1,8,0.35
2013-5-21,88,74,68,64,57,48,88,60,30,29.65,29.53,8,2,8,0.00
2013-6-6,71,70,69,67,67,65,92,89,81,29.47,29.44,7,0,7,0.08
2013-6-7,74,69,68,74,68,66,98,95,92,29.47,29.12,11,1,11,2.72
2013-6-8,89,70,66,74,67,54,98,91,32,29.68,29.41,8,0,8,0.04
2013-6-9,90,76,65,70,60,52,94,64,30,29.77,29.65,8,1,8,0.04
2013-6-12,94,84,74,63,56,50,68,40,28,29.56,29.47,9,2,9,0.00
2013-6-13,97,78,68,70,61,46,92,61,27,29.47,29.21,10,2,13,0.20
2013-6-14,80,69,60,65,51,42,92,58,31,29.62,29.32,12,1,12,0.00
2013-6-15,87,70,57,57,49,45,79,51,29,29.71,29.59,8,1,8,0.20
2013-6-16,90,75,64,54,48,42,69,41,28,29.71,29.59,11,2,11,0.00
2013-6-17,73,72,71,52,49,48,48,44,43,29.62,29.59,6,2,6,0.00
2013-6-18,86,73,68,67,61,52,90,67,33,29.56,29.35,9,2,9,0.98
2013-6-19,68,66,64,65,64,61,96,92,90,29.59,29.47,0,0,0,0.00
2013-6-22,81,73,70,65,59,50,86,62,36,29.80,29.71,6,1,6,0.04
2013-6-23,89,75,67,71,61,52,95,65,31,29.83,29.71,6,0,6,0.04
2013-6-24,90,77,70,68,60,53,86,57,30,29.80,29.68,9,2,9,0.00
2013-6-25,92,73,70,64,59,52,78,62,29,29.74,29.62,9,2,9,0.00
2013-6-26,72,72,72,57,57,57,58,58,58,29.65,29.65,4,3,4,0.00
2013-6-27,90,83,75,61,57,54,62,42,30,29.41,29.32,8,2,8,0.00
2013-6-28,94,79,70,68,60,50,90,57,28,29.38,29.18,14,2,14,0.79
2013-6-29,87,78,72,75,64,56,98,63,37,29.35,29.26,7,1,7,0.00
2013-6-30,74,74,72,68,67,65,82,79,74,29.35,29.32,5,0,5,0.08
2013-7-1,85,78,73,73,61,56,95,58,39,29.59,29.53,9,1,9,0.00
2013-7-4,93,85,75,68,57,53,77,41,28,29.88,29.77,8,2,8,0.00
2013-7-5,94,75,71,70,64,52,90,72,28,29.88,29.77,8,1,8,0.00
2013-7-6,91,79,73,67,58,52,81,52,29,29.85,29.71,6,1,6,0.00
2013-7-7,90,78,69,68,58,53,84,54,30,29.80,29.65,8,1,8,0.04
2013-7-8,93,77,71,74,64,54,95,68,29,29.77,29.68,8,1,8,0.83
2013-7-9,93,76,71,71,64,51,90,70,29,29.77,29.68,7,1,7,0.24
2013-7-10,91,78,72,72,62,54,91,63,31,29.71,29.56,13,2,13,0.43
2013-7-11,80,74,72,73,67,57,93,79,48,29.59,29.50,5,0,5,0.08
2013-7-12,75,72,69,70,64,0,95,76,50,29.62,29.47,5,0,5,0.00
2013-7-13,81,73,69,70,65,59,89,78,53,29.80,29.62,8,0,8,0.59
2013-7-14,91,77,70,74,63,53,96,66,30,29.91,29.80,6,0,6,0.00
2013-7-15,94,77,68,73,61,51,89,64,28,29.91,29.83,5,0,5,0.00
2013-7-16,89,74,68,72,62,55,88,68,34,29.88,29.83,6,0,6,0.00
2013-7-18,95,85,76,65,59,54,67,42,28,29.74,29.65,5,0,5,0.00
2013-7-19,96,79,74,68,63,52,80,62,27,29.71,29.59,8,1,8,0.00
2013-7-20,92,80,74,60,57,53,61,47,29,29.62,29.53,8,2,8,0.00
2013-7-21,94,78,73,63,58,0,68,52,28,29.59,29.50,9,2,9,0.00
2013-7-22,92,82,74,64,56,52,66,43,29,29.56,29.41,8,2,8,0.00
2013-7-23,92,80,73,62,57,52,68,48,28,29.47,29.32,10,2,10,0.00
2013-7-24,95,80,69,67,58,49,80,51,27,29.41,29.35,8,1,8,0.00
2013-7-26,90,78,68,54,50,46,59,39,28,29.71,29.65,6,0,6,0.00
2013-7-27,84,69,66,66,58,49,86,68,31,29.68,29.53,8,0,8,0.08
2013-7-28,90,76,69,72,60,50,94,64,29,29.59,29.53,8,1,8,0.00
2013-7-29,90,75,68,67,56,48,87,55,29,29.77,29.59,8,1,8,0.00
2013-7-30,89,72,61,55,51,47,73,49,29,29.83,29.74,7,0,7,0.00
2013-7-31,82,74,71,67,61,50,85,66,35,29.74,29.62,7,0,7,0.12
2013-8-1,87,74,69,72,63,53,94,70,32,29.62,29.47,10,1,10,0.16
2013-8-2,88,76,66,67,56,50,85,55,29,29.62,29.50,6,0,7,0.12
2013-8-3,86,75,69,70,61,54,84,65,33,29.62,29.53,8,1,8,0.51
2013-8-4,84,73,65,70,57,47,95,63,30,29.65,29.50,6,0,6,0.00
2013-8-5,65,64,64,54,54,53,69,67,66,29.65,29.62,0,0,0,0.00
2013-8-7,86,80,74,57,52,49,55,38,30,29.71,29.62,8,1,8,0.00
2013-8-8,88,77,70,68,57,52,82,54,31,29.68,29.62,8,1,8,0.00
2013-8-10,89,76,73,72,67,53,88,75,37,29.71,29.62,18,0,18,0.67
2013-8-11,92,79,72,76,66,55,96,69,30,29.71,29.62,6,0,6,0.00
2013-8-12,89,79,74,68,61,52,82,58,30,29.65,29.56,8,1,8,0.00
2013-8-13,88,77,70,74,63,54,94,67,33,29.59,29.38,11,1,11,0.28
2013-8-14,75,69,60,65,51,42,79,55,33,29.71,29.44,6,0,6,0.00
2013-8-15,76,65,59,50,46,42,70,53,32,29.77,29.68,6,0,6,0.00
2013-8-16,70,65,58,53,48,41,78,58,35,29.77,29.68,6,0,6,0.00
2013-8-17,71,69,66,64,62,57,87,79,72,29.77,29.71,5,0,5,0.12
2013-8-18,78,70,68,70,65,52,96,85,43,29.80,29.71,9,1,9,0.04
2013-8-19,74,71,69,69,67,59,92,86,60,29.77,29.74,6,0,6,0.04
2013-8-20,81,76,71,70,59,54,84,58,40,29.80,29.74,4,0,4,0.00
2013-8-21,83,74,70,72,65,56,90,74,40,29.83,29.71,6,0,6,0.12
2013-8-22,86,76,69,75,63,52,97,68,32,29.74,29.59,8,1,8,0.00
2013-8-23,86,76,68,66,59,52,82,58,34,29.68,29.53,8,1,8,0.00
2013-8-24,80,71,63,56,48,43,75,46,31,29.88,29.68,7,1,7,0.00
2013-8-25,77,69,59,45,44,41,59,41,31,29.94,29.88,6,0,6,0.00
2013-8-26,80,66,53,57,46,43,79,52,31,29.91,29.71,6,1,6,0.00
2013-8-27,87,72,60,61,52,49,74,54,30,29.71,29.56,6,1,6,0.00
2013-8-28,79,74,67,69,62,55,81,69,44,29.59,29.47,6,0,6,0.08
2013-8-29,84,75,72,66,62,51,80,66,33,29.56,29.44,5,1,5,0.00
2013-8-30,85,78,69,57,50,47,61,39,30,29.68,29.53,5,1,6,0.00
2013-8-31,87,75,66,67,55,50,83,53,30,29.59,29.47,8,1,8,0.00
2013-9-1,88,75,70,68,62,53,90,66,31,29.50,29.41,10,1,10,2.72
2013-9-2,86,76,69,76,65,56,97,75,38,29.50,29.41,8,1,8,0.00
2013-9-3,86,78,70,72,58,53,91,53,35,29.53,29.41,6,1,6,0.00
2013-9-4,70,69,68,64,63,60,84,80,76,29.62,29.53,4,0,4,0.00
2013-9-5,84,74,64,56,49,46,64,42,30,29.71,29.62,6,1,6,0.00
2013-9-6,78,70,62,56,46,40,72,44,31,29.77,29.68,6,0,6,0.00
2013-9-7,79,75,66,52,47,44,60,39,31,29.71,29.59,6,1,6,0.00
2013-9-8,83,76,67,57,50,46,70,41,30,29.59,29.50,6,1,6,0.00
2013-9-9,84,73,64,65,55,49,82,56,31,29.74,29.59,6,0,6,0.00
2013-9-10,86,72,66,63,58,50,77,63,30,29.83,29.74,6,0,6,0.00
2013-9-11,83,71,66,63,57,50,79,63,32,29.80,29.68,6,0,6,0.00
2013-9-12,88,76,68,60,55,51,71,50,30,29.68,29.41,9,1,9,0.00
2013-9-13,82,72,62,62,51,42,77,51,31,29.50,29.35,8,1,8,0.00
2013-9-14,72,64,57,45,38,33,53,38,32,29.74,29.50,10,1,10,0.00
2013-9-15,58,58,57,38,38,37,47,47,47,29.74,29.71,0,0,0,0.00
2013-9-16,82,74,66,70,50,42,88,45,31,29.77,29.62,8,1,8,0.00
2013-9-17,72,64,57,44,40,36,61,43,32,29.91,29.77,10,1,10,0.00
2013-9-18,72,60,48,46,39,36,74,47,32,29.91,29.77,6,1,6,0.00
2013-9-19,72,58,54,49,45,41,71,64,34,29.80,29.68,0,0,0,0.00
2013-9-20,72,66,60,62,54,48,85,66,43,29.68,29.56,7,0,7,0.35
2013-9-21,74,68,66,65,57,51,87,70,46,29.56,29.32,6,0,6,0.67
2013-9-22,69,65,59,63,58,41,93,81,36,29.50,29.32,8,0,8,0.47
2013-9-23,70,61,54,49,40,34,70,47,33,29.68,29.50,8,1,8,0.47
2013-9-24,72,61,52,49,44,38,78,56,33,29.71,29.53,6,0,6,0.47
2013-10-1,78,74,60,48,45,44,64,37,31,29.68,29.59,6,2,6,0.00
2013-10-2,80,65,56,58,48,45,79,58,31,29.71,29.59,8,1,8,0.00
2013-10-3,81,74,64,59,49,46,78,44,30,29.68,29.62,6,0,6,0.00
2013-10-4,82,72,65,59,50,46,72,48,31,29.68,29.59,8,1,8,0.00
2013-10-5,85,77,67,52,49,47,59,39,29,29.65,29.56,6,1,6,0.00
2013-10-6,80,71,61,62,53,48,79,54,33,29.62,29.47,8,1,8,0.00
2013-10-7,73,70,64,68,62,53,90,79,60,29.50,29.38,10,1,10,1.02
2013-10-8,63,60,58,53,39,31,68,46,36,29.68,29.50,8,0,8,0.00
2013-10-9,61,57,54,49,36,32,81,46,38,29.68,29.56,10,1,10,0.08
2013-10-10,59,56,53,55,51,47,91,84,78,29.56,29.41,6,0,6,0.04
2013-10-11,64,60,58,59,55,52,93,87,65,29.44,29.38,6,0,6,0.00
2013-10-12,67,62,60,62,56,52,91,83,59,29.53,29.41,4,0,4,0.00
2013-10-13,66,63,61,60,58,54,91,83,66,29.65,29.53,6,0,6,0.04
2013-10-14,64,61,56,60,57,43,94,87,49,29.68,29.62,6,0,6,0.04
2013-10-15,59,54,52,56,50,48,92,85,77,29.62,29.59,4,0,4,0.00
2013-10-16,69,67,60,57,48,45,75,51,43,29.47,29.38,3,0,3,0.00
2013-10-17,74,65,58,62,51,44,88,62,36,29.38,29.23,9,1,9,0.00
2013-10-18,68,61,53,54,41,33,71,48,34,29.41,29.26,6,0,6,0.00
2013-10-19,69,65,59,55,52,48,80,66,48,29.26,29.18,6,0,6,0.00
2013-10-20,61,54,45,53,36,27,81,54,34,29.44,29.23,6,0,6,0.00
2013-10-21,64,51,39,45,34,30,76,54,34,29.47,29.29,6,0,6,0.00
2013-10-22,64,56,50,50,44,38,76,64,44,29.29,29.06,5,0,5,0.00
2013-10-23,64,56,46,54,39,23,85,57,34,29.20,28.91,11,2,11,0.00
2013-10-24,57,46,35,30,25,21,61,44,36,29.35,29.20,13,2,13,0.00
2013-10-25,52,44,36,26,23,20,54,43,36,29.47,29.35,9,1,9,0.00
2013-10-26,57,50,41,30,26,22,51,40,35,29.38,29.18,11,2,11,0.00
2013-10-27,64,48,40,35,28,24,59,46,34,29.24,29.15,8,1,8,0.00
2013-10-28,68,52,43,41,34,28,68,51,33,29.32,29.20,6,0,6,0.00
2013-10-29,69,56,50,49,42,38,76,59,34,29.41,29.32,6,0,6,0.00
2013-11-2,68,61,52,57,37,28,91,42,33,28.97,28.76,12,2,12,0.00
2013-11-3,58,44,39,34,28,23,68,52,35,29.38,28.97,6,0,6,0.00
2013-11-4,53,43,36,26,22,18,54,43,36,29.56,29.38,9,1,9,0.00
2013-11-5,57,48,37,36,27,19,56,45,38,29.53,29.41,6,0,6,0.00
2013-11-6,68,55,44,43,38,35,76,55,34,29.41,29.15,6,0,6,0.00
2013-11-10,68,58,46,38,31,22,39,35,33,29.21,29.03,10,2,12,0.00
2013-11-11,57,44,31,30,22,14,55,42,35,29.32,29.09,6,1,6,0.00
2013-11-12,59,40,33,31,21,12,64,47,35,29.35,29.00,9,1,9,0.00
2013-11-13,43,33,25,19,12,6,48,41,38,29.47,29.35,12,1,12,0.00
2013-11-14,55,36,22,29,16,8,56,45,35,29.41,29.26,11,1,11,0.00
2013-11-15,61,45,28,33,24,12,56,44,34,29.29,29.15,8,1,8,0.00
2013-11-16,63,55,49,46,39,31,77,56,42,29.23,29.15,6,0,6,0.00
2013-11-17,68,60,53,57,47,41,89,65,38,29.18,28.88,6,0,6,0.00
2013-11-20,45,44,42,23,22,22,46,42,40,29.38,29.35,6,1,6,0.00
2013-11-21,59,48,40,33,28,22,51,45,36,29.44,29.32,6,0,6,0.00
2013-11-22,68,57,45,47,38,30,64,49,37,29.32,29.03,13,2,13,0.00
2013-11-23,61,54,41,53,35,18,80,50,35,29.12,28.97,6,1,6,0.04
2013-11-24,41,33,22,18,12,3,43,40,39,29.47,29.12,10,2,10,0.00
2013-11-25,40,29,16,17,9,-1,47,42,39,29.50,29.29,9,1,9,0.00
2013-11-26,64,44,34,63,30,12,97,59,39,29.29,28.50,11,2,11,0.91
2013-11-27,52,42,33,47,36,14,87,79,46,28.85,28.41,13,2,13,0.91
2013-11-28,41,34,25,18,14,9,53,44,39,29.35,29.23,6,1,6,0.00
2013-11-29,47,33,22,22,15,10,63,47,37,29.47,29.32,8,1,8,0.00
2013-11-30,46,34,26,22,14,8,56,44,38,29.47,29.18,9,1,9,0.00
2013-12-1,54,31,26,28,17,13,67,56,36,29.18,28.82,8,0,8,0.00
2013-12-2,57,42,33,35,26,17,73,54,36,28.82,28.58,6,0,6,0.00
2013-12-3,57,45,32,35,27,20,76,51,36,28.67,28.61,8,0,8,0.00
2013-12-4,61,56,50,46,39,32,73,53,46,28.73,28.64,6,0,6,0.00
2013-12-5,66,59,52,62,53,45,91,82,67,28.73,28.61,8,0,8,0.08
2013-12-6,76,68,64,58,47,42,80,48,32,28.61,28.50,19,4,19,0.04
2013-12-7,68,53,42,48,35,20,67,51,38,28.88,28.53,10,2,10,0.12
2013-12-8,34,33,32,28,25,18,77,70,56,28.85,28.64,6,1,6,0.04
2013-12-9,35,34,34,31,29,28,84,79,77,28.64,28.53,4,0,4,0.04
2013-12-13,35,33,31,17,14,11,48,46,43,28.41,28.38,0,0,0,0.04
2013-12-14,47,40,35,34,25,17,82,57,38,28.38,27.82,8,1,8,0.87
2013-12-15,52,41,30,43,28,14,94,63,37,28.05,27.73,13,2,13,0.04
2013-12-16,52,37,27,26,20,14,68,50,37,28.14,28.05,8,1,8,0.04
2013-12-17,58,43,29,31,24,19,74,49,35,28.08,27.82,23,1,23,0.00
2013-12-18,42,39,35,23,20,15,50,45,41,28.02,27.96,6,0,6,0.00
2013-12-19,48,47,45,24,22,21,38,38,37,28.14,28.08,5,0,5,0.00
2013-12-20,46,42,39,22,20,18,47,41,38,28.08,28.08,4,0,4,0.00
2013-12-21,68,66,65,54,52,49,64,61,57,27.94,27.91,13,4,13,0.00
2013-12-22,76,69,63,60,51,41,78,56,33,27.99,27.88,19,3,19,0.39
2013-12-23,65,60,47,62,53,29,93,79,49,27.99,27.85,8,1,8,1.85
2013-12-24,47,40,28,29,18,8,57,43,38,28.26,27.96,10,2,10,1.81
2013-12-25,36,28,22,14,8,3,48,42,40,28.35,28.20,6,1,6,0.00
2013-12-26,50,34,22,24,15,6,55,46,37,28.20,28.02,8,1,8,0.00
2013-12-27,50,35,25,24,15,9,52,44,37,28.23,28.14,7,0,7,0.00
2013-12-28,57,39,24,30,19,10,58,44,35,28.20,27.96,6,1,6,0.00
2013-12-29,61,48,39,58,38,22,92,69,38,27.96,27.49,11,2,11,1.61
2013-12-30,53,43,33,43,29,20,84,60,38,27.91,27.70,6,0,6,1.61
2013-12-31,50,40,29,31,20,13,71,46,37,28.11,27.88,11,1,11,0.00
2014-1-1,49,36,28,24,18,13,57,47,37,28.17,27.91,7,0,7,0.00
2014-1-2,44,37,34,38,24,17,82,59,51,27.91,27.32,10,1,10,0.35